Volver al catálogo

QIANFAN-156

ActivoComunicacionesPO
NORAD 69115·PAYLOAD·🇨🇳 China

Lanzado May 17, 2026 desde Wenchang Space Launch Site

Loading…

Próximos Pases (próximas 24 horas)

TLE

ActualizadoSource: Space-Track

Época: Sep 14, 2026, 13:53 UTC

1 69115U 26108M   26257.57860127  .00000106  00000-0  14551-3 0  9993
2 69115  89.0205  13.0958 0001869 107.1576 252.9780 13.51022663 16532

Sigue QIANFAN-156 en tiempo real con AllMySat

Download on the App Store